Location: *
(50.5492°N, 7.7469°E)
Time: 00:31:54
(UTC+00:00)

STARLINK-32 - Pass Details

Date: 21 October 2019
Orbit: 548 x 551 km, 53.0° (Epoch: 20 November)

Event Time Altitude Azimuth Distance (km) Brightness Sun altitude
Rises 18:11:48 0° 280° (W) 2,719 8.9 -17.5°
Reaches altitude 10° 18:14:03 10° 283° (WNW) 1,825 7.5 -17.9°
Maximum altitude 18:18:10 62° 5° (N) 623 3.8 -18.5°
Enters shadow 18:19:18 43° 65° (ENE) 785 4.0 -18.7°
